Weather History for Port Angeles, WA

Change the Weather History Date:

Thursday, July 4, 2013

  Actual Average Record
Temperature  
Mean Temperature 59 °F -  
Max Temperature 66 °F 66 °F 85 °F (1972)
Min Temperature 52 °F 51 °F 44 °F (1977)
Degree Days  
Heating Degree Days 6    
Growing Degree Days 9 (Base 50)    
Moisture  
Dew Point 51 °F    
Average Humidity 76    
Maximum Humidity 90    
Minimum Humidity 60    
Precipitation  
Precipitation 0.00 in - - ()
Sea Level Pressure  
Sea Level Pressure 30.09 in    
Wind  
Wind Speed 9 mph (WNW)    
Max Wind Speed 14 mph    
Max Gust Speed 18 mph    
Visibility 10 miles    
Events      
Averages and records for this station are not official NWS values.
T = Trace of Precipitation, MM = Missing Value Source: NWS Daily Summary

Daily Weather History Graph

Daily Weather History Graph

Search for Another Location

Airport:

Trip Planner

Search our weather history database for the weather conditions in past years. The results will help you decide how hot, cold, wet, or windy it might be!

Date:

Astronomy

Jul. 04, 2013 Rise Set
Actual Time 5:20 AM PDT 9:16 PM PDT
Civil Twilight 4:39 AM PDT 9:57 PM PDT
Nautical Twilight 3:42 AM PDT 10:53 PM PDT
Astronomical Twilight 2:12 AM PDT 12:22 AM PDT
Moon 2:47 AM PDT (7/4) 6:20 PM PDT (7/4)
Length of Visible Light 17h 17m
Length of Day
15h 56m
Waning Crescent, 11% of the Moon is Illuminated
Jul 4
Waning Crescent
Jul 8
New
Jul 15
First Quarter
Jul 22
Full
Jul 29
Last Quarter

Hourly Weather History & Observations

Time (PDT) Temp. Dew Point Humidity Pressure Visibility Wind Dir Wind Speed Gust Speed Precip Events Conditions
12:53 AM 55.9 °F 48.9 °F 77% 30.10 in 10.0 mi West 11.5 mph - N/A   Clear
1:53 AM 55.0 °F 50.0 °F 83% 30.10 in 10.0 mi West 11.5 mph - N/A   Clear
2:53 AM 55.0 °F 48.9 °F 80% 30.11 in 10.0 mi West 5.8 mph - N/A   Clear
3:53 AM 55.0 °F 50.0 °F 83% 30.10 in 10.0 mi West 10.4 mph - N/A   Clear
4:53 AM 54.0 °F 48.9 °F 83% 30.10 in 10.0 mi West 10.4 mph - N/A   Clear
5:53 AM 52.0 °F 48.0 °F 86% 30.10 in 10.0 mi West 5.8 mph - N/A   Clear
6:53 AM 55.9 °F 50.0 °F 80% 30.10 in 10.0 mi West 6.9 mph - N/A   Clear
7:53 AM 57.9 °F 53.1 °F 84% 30.11 in 10.0 mi NW 8.1 mph - N/A   Clear
8:53 AM 61.0 °F 53.1 °F 75% 30.11 in 10.0 mi Variable 6.9 mph - N/A   Clear
9:53 AM 61.0 °F 53.1 °F 75% 30.12 in 10.0 mi WNW 6.9 mph - N/A   Clear
10:53 AM 63.0 °F 53.1 °F 70% 30.12 in 10.0 mi NNW 9.2 mph - N/A   Clear
11:53 AM 64.0 °F 53.1 °F 67% 30.12 in 10.0 mi NNW 6.9 mph - N/A   Partly Cloudy
12:53 PM 64.0 °F 52.0 °F 65% 30.12 in 10.0 mi NW 10.4 mph - N/A   Clear
1:53 PM 64.0 °F 52.0 °F 65% 30.11 in 10.0 mi WNW 8.1 mph - N/A   Clear
2:53 PM 66.0 °F 52.0 °F 60% 30.10 in 10.0 mi WNW 8.1 mph - N/A   Scattered Clouds
3:53 PM 66.0 °F 53.1 °F 63% 30.09 in 10.0 mi WNW 10.4 mph - N/A   Clear
4:53 PM 64.9 °F 52.0 °F 63% 30.08 in 10.0 mi NNW 10.4 mph 18.4 mph N/A   Clear
5:53 PM 63.0 °F 52.0 °F 67% 30.08 in 10.0 mi NW 13.8 mph 18.4 mph N/A   Clear
6:53 PM 62.1 °F 52.0 °F 70% 30.07 in 10.0 mi WNW 8.1 mph - N/A   Clear
7:53 PM 60.1 °F 52.0 °F 75% 30.07 in 10.0 mi WNW 12.7 mph - N/A   Clear
8:53 PM 57.0 °F 52.0 °F 83% 30.06 in 10.0 mi West 6.9 mph - N/A   Clear
9:53 PM 55.0 °F 52.0 °F 89% 30.06 in 10.0 mi WNW 8.1 mph - N/A   Clear
10:53 PM 54.0 °F 51.1 °F 90% 30.06 in 10.0 mi West 6.9 mph - N/A   Clear
11:53 PM 53.1 °F 50.0 °F 89% 30.05 in 10.0 mi WNW 4.6 mph - N/A   Clear